Regional Weather Roundup
Issued by NWS

Home | Current Version | Previous Version | Graphics & Text | Print | Product List | Glossary On
Versions: 1 2 3 4 5 6 7 8 9 10 11 12 13 14 15 16 17 18 19 20 21 22 23 24 25 26 27 28 29 30 31 32 33 34 35 36 37 38 39 40 41 42 43 44 45 46 47 48 49 50
000
ASUS45 KTFX 012019
RWRMT
MONTANA REGIONAL WEATHER ROUNDUP
NATIONAL WEATHER SERVICE GREAT FALLS MT
200 PM MDT TUE SEP 01 2015

NOTE: "FAIR" INDICATES FEW OR NO CLOUDS BELOW 12000 FEET WITH NO
SIGNIFICANT WEATHER AND/OR OBSTRUCTIONS TO VISIBILITY.

MTZ001>007-043-012100-
WEST OF THE DIVIDE

CITY           SKY/WX    TMP DP  RH WIND       PRES   REMARKS
KALISPELL      PTCLDY    73  37  27 W10       29.85F
MISSOULA       MOSUNNY   75  42  30 SE6       29.88F
BUTTE          MOSUNNY   75  23  14 MISG      29.97F
MULLAN PASS    SUNNY     58  36  43 SW10G20   29.99F
DEER LODGE       N/A     75  36  23 N5        29.94F
EUREKA           N/A     73  37  27 S13G18    29.85F
HAMILTON         N/A     77  39  25 NE6       29.86F
LIBBY            N/A     73  41  31 S8        29.86F
PLAINS           N/A     79  38  22 W1        29.86F
RONAN            N/A     75  39  27 SW5       29.94F
THOMPSON FALLS   N/A     77  45  32 N7        29.90F
$$

MTZ008-052>055-012100-
SOUTHWEST MONTANA

CITY           SKY/WX    TMP DP  RH WIND       PRES   REMARKS
BOZEMAN        SUNNY     82  34  17 VRB3      29.91F
DILLON         SUNNY     81  31  16 W15G22    29.94F
W YELLOWSTONE  SUNNY     75  27  16 SW18G30   30.08S
THREE FORKS      N/A     80  15   8 CALM      29.91F
TWIN BRIDGES     N/A     80  35  19 S16       29.93F
$$

MTZ009-010-012-014-046-048-049-054-012100-
EAST SLOPES AND CENTRAL MONTANA

CITY           SKY/WX    TMP DP  RH WIND       PRES   REMARKS
CUT BANK       PTSUNNY   76  32  20 W29G39    29.79F
GREAT FALLS    PTSUNNY   82  28  14 SW26G37   29.82F
MALMSTROM AFB  CLOUDY    79  35  19 SW20G31   29.82F
HELENA         MOSUNNY   80  37  21 N10       29.86F
CONRAD           N/A     79  23  12 S10       29.85F
$$

MTZ011-013-016-021-045-047-050-051-012100-
NORTH CENTRAL MONTANA

CITY           SKY/WX    TMP DP  RH WIND       PRES   REMARKS
HAVRE          MOSUNNY   83  25  12 W21G32    29.75S
LEWISTOWN      SUNNY     83  30  14 W18G24    29.87F
N BAR RANCH      N/A     79  39  24 VRB3      29.91S
CHINOOK          N/A     82  28  14 SW22G28   29.75S
FORT BENTON      N/A     81  30  16 SW18G24   29.79F
$$

MTZ017>020-022>027-061-062-012100-
NORTHEAST MONTANA

CITY           SKY/WX    TMP DP  RH WIND       PRES   REMARKS
GLASGOW        SUNNY     85  41  21 W16       29.75F
JORDAN           N/A     86  37  17 NW6G18    29.79F
SIDNEY         SUNNY     91  48  22 S10       29.75F
WOLF POINT     SUNNY     87  45  23 W14       29.76F
MALTA            N/A     81  44  26 CALM      29.74F
PLENTYWOOD       N/A     86  45  23 SW18G25   29.75S
POPLAR           N/A     86  43  22 SW9G16    29.76S
SCOBEY           N/A     83  42  23 W12       29.77S
$$

MTZ028>42-056>058-012100-
SOUTHCENTRAL AND SOUTHEAST MONTANA

CITY           SKY/WX    TMP DP  RH WIND       PRES   REMARKS
BAKER          SUNNY     90  44  20 W9        29.83F
BILLINGS       MOSUNNY   88  28  11 S7        29.85F
LIVINGSTON     SUNNY     87  28  12 NW14G21   29.88F
MILES CITY     SUNNY     91  37  15 NW9G22    29.79F
EKALAKA          N/A     86  46  24 SW3       29.86S
FORSYTH          N/A     88  32  13 W10       29.80F
LAUREL           N/A     88  31  13 E1        29.85F
ROUNDUP          N/A     86  33  15 W8        29.77F
$$

REGIONAL REPORTS...DAKOTAS

CITY           SKY/WX    TMP DP  RH WIND       PRES   REMARKS
WILLISTON      SUNNY     90  52  27 S8        29.76F
MINOT          SUNNY     86  54  33 S14       29.79S
DICKINSON      SUNNY     88  57  34 SE13      29.80F
BEACH            N/A     88  43  20 SE9       29.81F
CROSBY           N/A     90  48  24 S17       29.75S
BISMARCK       SUNNY     86  60  41 SE10      29.81F
GRAND FORKS    SUNNY     86  54  33 S13G18    29.84S
FARGO          SUNNY     89  51  27 SE13      29.85F
BUFFALO SD       N/A     84  58  40 VRB3      29.78F
RAPID CITY     SUNNY     84  59  42 E7        29.86S
$$

REGIONAL REPORTS...WYOMING/IDAHO/WASHINGTON

CITY           SKY/WX    TMP DP  RH WIND       PRES   REMARKS
GILLETTE       SUNNY     87  29  12 W3        29.91F
SHERIDAN       SUNNY     91  27  10 E6        29.86F
BUFFALO WY     SUNNY     88  28  11 N8        29.95F
CODY           SUNNY     84  30  14 SE13      29.91F
YELLOWSTONE LA   N/A     71  25  17 W10G26    30.18F
IDAHO FALLS    MOSUNNY   82  34  17 S14       29.98F
SALMON         SUNNY     81  39  22 N7        29.85F
BOISE          SUNNY     82  40  22 W6        29.87F
SPOKANE        PTSUNNY   69  43  38 SW8       29.87F
$$

REGIONAL REPORTS...ALBERTA

CITY           SKY/WX    TMP DP  RH WIND       PRES   REMARKS
EDMONTON       MOSUNNY   64  36  34 W13G20    29.65R
CALGARY        MOSUNNY   70  37  30 SE8       29.68S
LETHBRIDGE     MOSUNNY   77  34  20 W15G32    29.72S
MEDICINE HAT   MOSUNNY   81  37  21 W18G25    29.70S
WATERTON GATE    N/A     70  36  28 SW23G31     N/A
CARDSTON         N/A     75  32  20 SW10G20     N/A
MILK RIVER       N/A     77  30  18 SW18G25     N/A
$$

REGIONAL REPORTS...SASKATCHEWAN

CITY           SKY/WX    TMP DP  RH WIND       PRES   REMARKS
SWIFT CURRENT  SUNNY     79  34  19 W23G29    29.72S
REGINA         PTSUNNY   81  43  26 SW20G25   29.70F
SASKATOON      MOSUNNY   79  39  24 W21G26    29.64S
CYPRESS HILLS    N/A     73  28  19 W13G21      N/A
VAL MARIE        N/A     82  28  14 W18G26      N/A
ROCKGLEN         N/A     77  41  27 SW13G18     N/A
ASSINIBOIA       N/A     70  36  28 W15G24      N/A
$$


USA.gov is the U.S. government's official web portal to all federal, state and local government web resources and services.